Date String (YYYY-MM-DD hh:mm:ss) UTC,Instrument flags,Ambient pressure (hPa),Sample flow (lpm),Bypass flow (lpm),Sample temperature (°C),Ambient temperature (°C),ASC tube jacket temperature (°C),LED temperature (°C),Box temperature (°C),Sample RH (%),Span deviation,Mass concentration (μg/m³),Mass concentration (μg/m³),Mass concentration (μg/m³)
DateTimeUTC,F1_M11,P_M11,Q1_M11,Q2_M11,T1_M11,T2_M11,T3_M11,T4_M11,T5_M11,U1_M11,ZSPAN_M11,X0_M11,X2_M11,X1_M11
2022-07-28 14:00:00,,0832.7,5.00,0.00,30.3,28.5,00.0,39.1,32.0,33.4,0000.0,0007.15,0001.91,0001.08
2022-07-28 14:01:00,,0832.8,4.99,0.00,30.3,28.6,00.0,39.1,32.0,33.4,0000.0,0007.54,0002.01,0001.13
2022-07-28 14:02:00,,0832.8,5.00,0.00,30.3,28.7,00.0,39.1,32.0,33.6,0000.0,0006.88,0002.07,0001.19
2022-07-28 14:03:00,,0832.8,5.00,0.00,30.3,28.8,00.0,39.1,32.0,33.8,0000.0,0006.77,0002.08,0001.23
2022-07-28 14:04:00,,0832.9,5.00,0.00,30.3,28.8,00.0,39.1,32.1,34.1,0000.0,0006.93,0002.18,0001.29
2022-07-28 14:05:00,,0832.9,5.00,0.00,30.3,28.9,00.0,39.1,32.1,34.0,0000.0,0007.01,0002.26,0001.36
2022-07-28 14:06:00,,0832.9,5.00,0.00,30.3,29.0,00.0,39.1,32.1,34.2,0000.0,0007.02,0002.32,0001.43
2022-07-28 14:07:00,,0832.8,5.00,0.00,30.3,29.0,00.0,39.1,32.1,34.1,0000.0,0006.84,0002.45,0001.54
2022-07-28 14:08:00,,0832.8,5.00,0.00,30.3,29.0,00.0,39.1,32.1,33.4,0000.0,0006.49,0002.64,0001.68
2022-07-28 14:09:00,,0832.9,5.00,0.00,30.3,29.1,00.0,39.1,32.2,33.6,0000.0,0006.83,0002.84,0001.81
2022-07-28 14:10:00,,0832.9,5.01,0.00,30.4,29.1,00.0,39.1,32.2,33.9,0000.0,0006.77,0003.08,0002.00
2022-07-28 14:11:00,,0832.9,5.01,0.00,30.4,29.1,00.0,39.1,32.2,34.1,0000.0,0006.27,0003.20,0002.20
2022-07-28 14:12:00,,0833.1,5.00,0.00,30.4,29.2,00.0,39.1,32.2,34.1,0000.0,0006.14,0003.31,0002.37
2022-07-28 14:13:00,,0833.1,4.98,0.00,30.4,29.2,00.0,39.1,32.2,34.4,0000.0,0007.05,0003.31,0002.43
2022-07-28 14:14:00,,0833.0,5.00,0.00,30.4,29.2,00.0,39.1,32.2,34.5,0000.0,0007.08,0003.34,0002.50
2022-07-28 14:15:00,,0833.0,5.01,0.00,30.4,29.3,00.0,39.2,32.3,34.7,0000.0,0007.17,0003.37,0002.57
2022-07-28 14:16:00,,0833.0,4.99,0.00,30.4,29.3,00.0,39.2,32.3,34.5,0000.0,0007.09,0003.39,0002.64
2022-07-28 14:17:00,,0833.1,5.01,0.00,30.4,28.7,00.0,39.1,32.2,34.6,0000.0,0007.25,0003.43,0002.69
2022-07-28 14:18:00,,0833.1,4.99,0.00,30.4,28.0,00.0,39.1,32.1,34.6,0000.0,0007.33,0003.41,0002.67
2022-07-28 14:19:00,,0833.1,5.01,0.00,30.3,27.8,00.0,39.1,32.0,34.5,0000.0,0007.30,0003.34,0002.61
2022-07-28 14:20:00,,0833.1,4.99,0.00,30.2,27.8,00.0,39.0,31.9,34.9,0000.0,0007.16,0003.29,0002.58
2022-07-28 14:21:00,,0833.1,5.01,0.00,30.2,27.9,00.0,39.0,31.9,35.6,0000.0,0006.84,0003.21,0002.49
2022-07-28 14:22:00,,0833.2,5.00,0.00,30.5,28.0,00.0,39.0,32.0,35.1,0000.0,0006.87,0003.14,0002.33
2022-07-28 14:23:00,,0833.2,5.01,0.00,30.7,28.1,00.0,39.0,32.1,34.3,0000.0,0006.46,0002.95,0002.14
2022-07-28 14:24:00,,0833.1,5.00,0.00,30.9,28.3,00.0,39.0,32.1,33.8,0000.0,0005.13,0002.84,0002.06
2022-07-28 14:25:00,,0833.2,5.00,0.00,30.9,28.4,00.0,39.0,32.1,33.9,0000.0,0004.92,0002.77,0002.00
2022-07-28 14:26:00,,0833.2,5.00,0.00,31.0,28.5,00.0,39.1,32.1,33.5,0000.0,0004.72,0002.68,0001.92
2022-07-28 14:27:00,,0833.2,5.00,0.00,31.0,28.6,00.0,39.1,32.1,33.1,0000.0,0004.67,0002.59,0001.83
2022-07-28 14:28:00,,0833.1,5.01,0.00,31.0,28.7,00.0,39.2,32.1,33.3,0000.0,0004.42,0002.43,0001.73
2022-07-28 14:29:00,,0833.2,5.00,0.00,31.0,28.7,00.0,39.2,32.1,32.9,0000.0,0004.00,0002.30,0001.65
2022-07-28 14:30:00,,0833.2,5.00,0.00,31.0,28.8,00.0,39.2,32.1,32.9,0000.0,0003.76,0002.26,0001.56
2022-07-28 14:31:00,,0833.2,5.01,0.00,31.0,28.8,00.0,39.3,32.2,33.0,0000.0,0003.69,0002.17,0001.47
2022-07-28 14:32:00,,0833.2,5.00,0.00,31.0,28.9,00.0,39.3,32.2,32.7,0000.0,0003.42,0002.01,0001.35
2022-07-28 14:33:00,,0833.2,5.00,0.00,30.9,28.9,00.0,39.3,32.2,33.0,0000.0,0003.15,0001.89,0001.29
2022-07-28 14:34:00,,0833.2,4.99,0.00,30.9,29.0,00.0,39.4,32.2,33.3,0000.0,0003.62,0001.90,0001.27
2022-07-28 14:35:00,,0833.3,5.00,0.00,30.9,29.0,00.0,39.4,32.2,33.0,0000.0,0004.99,0001.92,0001.25
2022-07-28 14:36:00,,0833.3,5.00,0.00,30.9,29.1,00.0,39.4,32.2,32.7,0000.0,0005.08,0001.92,0001.21
2022-07-28 14:37:00,,0833.3,5.01,0.00,30.9,29.1,00.0,39.4,32.3,32.8,0000.0,0005.11,0001.90,0001.18
2022-07-28 14:38:00,,0833.3,5.00,0.00,30.9,29.1,00.0,39.4,32.3,32.5,0000.0,0004.98,0001.85,0001.15
2022-07-28 14:39:00,,0833.3,5.00,0.00,30.9,29.1,00.0,39.4,32.3,32.7,0000.0,0005.02,0001.86,0001.12
2022-07-28 14:40:00,,0833.3,5.01,0.00,30.9,29.2,00.0,39.4,32.3,32.9,0000.0,0005.07,0001.90,0001.13
2022-07-28 14:41:00,,0833.3,4.98,0.00,30.9,29.2,00.0,39.4,32.3,33.4,0000.0,0005.02,0001.89,0001.14
2022-07-28 14:42:00,,0833.3,4.99,0.00,30.9,29.2,00.0,39.4,32.3,33.4,0000.0,0004.93,0001.86,0001.14
2022-07-28 14:43:00,,0833.3,5.01,0.00,30.9,29.3,00.0,39.4,32.4,33.3,0000.0,0005.00,0001.89,0001.15
2022-07-28 14:44:00,,0833.3,5.00,0.00,30.8,29.3,00.0,39.4,32.4,33.2,0000.0,0005.01,0001.89,0001.16
2022-07-28 14:45:00,,0833.3,5.00,0.00,30.8,29.3,00.0,39.5,32.4,33.3,0000.0,0004.33,0001.82,0001.15
2022-07-28 14:46:00,,0833.3,5.00,0.00,30.8,29.3,00.0,39.5,32.4,33.4,0000.0,0003.13,0001.81,0001.15
2022-07-28 14:47:00,,0833.3,5.01,0.00,30.8,29.3,00.0,39.5,32.4,33.7,0000.0,0003.15,0001.83,0001.17
2022-07-28 14:48:00,,0833.3,5.00,0.00,30.8,29.3,00.0,39.5,32.4,33.8,0000.0,0003.27,0001.86,0001.17
2022-07-28 14:49:00,,0833.3,5.00,0.00,30.8,29.4,00.0,39.5,32.4,33.8,0000.0,0003.30,0001.87,0001.17
2022-07-28 14:50:00,,0833.2,4.99,0.00,30.8,29.4,00.0,39.5,32.4,33.6,0000.0,0003.28,0001.86,0001.18
2022-07-28 14:51:00,,0833.3,5.00,0.00,30.8,29.4,00.0,39.5,32.4,33.8,0000.0,0003.24,0001.84,0001.18
2022-07-28 14:52:00,,0833.3,5.00,0.00,30.8,29.4,00.0,39.5,32.5,33.8,0000.0,0003.18,0001.83,0001.18
2022-07-28 14:53:00,,0833.3,5.00,0.00,30.8,29.4,00.0,39.5,32.5,33.8,0000.0,0003.32,0001.87,0001.19
2022-07-28 14:54:00,,0833.3,5.00,0.00,30.8,29.4,00.0,39.5,32.5,33.9,0000.0,0003.48,0001.93,0001.22
2022-07-28 14:55:00,,0833.2,5.00,0.00,30.8,29.5,00.0,39.5,32.5,33.7,0000.0,0003.58,0002.00,0001.26
2022-07-28 14:56:00,,0833.2,4.99,0.00,30.8,29.5,00.0,39.5,32.5,33.4,0000.0,0003.73,0002.10,0001.31
2022-07-28 14:57:00,,0833.1,5.01,0.00,30.8,29.5,00.0,39.5,32.5,33.0,0000.0,0003.86,0002.18,0001.36
2022-07-28 14:58:00,,0833.1,5.00,0.00,30.8,29.5,00.0,39.5,32.5,33.4,0000.0,0003.91,0002.21,0001.40
2022-07-28 14:59:00,,0833.2,5.00,0.00,30.8,29.5,00.0,39.5,32.5,33.6,0000.0,0003.80,0002.23,0001.46
